DW1053 Weather Reports


time (UTC)temp
C
wind
direction
speed
KPH
gust
KPH
rain 1hr
cm
rain 24hr
cm
rain mn
cm
humidity
%
barometer
mb
20260506220210 10 183 0.0 0.0 0.00 0.91 0.91 93 1007.2
20260506210206 10 309 0.0 0.0 0.00 0.91 0.91 92 1006.8
20260506190222 11 196 0.0 0.0 0.00 0.91 0.91 92 1005.9
20260506180232 11 198 0.0 1.6 0.05 0.91 0.91 91 1005.6
20260506160224 12 180 0.0 0.0 0.03 0.84 0.84 90 1005.0
20260506150233 11 180 0.0 0.0 0.00 0.81 0.81 90 1004.7
20260506130207 11 227 0.0 9.7 0.15 0.76 0.76 90 1004.4
20260506120208 12 237 0.0 11.3 0.46 0.61 0.61 89 1003.9
20260506110208 13 127 0.0 0.0 0.15 0.15 0.15 86 1003.5
20260506100235 14 121 0.0 0.0 0.00 0.00 0.00 77 1003.3
20260506090209 13 119 0.0 1.6 0.00 0.00 0.00 75 1002.8
20260506080206 13 119 0.0 1.6 0.00 0.00 0.00 79 1002.4
20260506070206 11 121 0.0 0.0 0.00 0.05 0.00 86 1002.5
20260506050207 10 121 0.0 0.0 0.00 0.05 0.00 90 1002.4
20260506040206 10 119 0.0 3.2 0.00 0.05 0.00 91 1002.7
20260506030206 10 126 0.0 0.0 0.00 0.05 0.00 91 1003.0
20260506020206 11 119 0.0 0.0 0.00 0.05 0.00 90 1003.2
20260506010206 11 119 0.0 3.2 0.00 0.05 0.00 89 1003.7
20260506000206 11 121 0.0 0.0 0.00 0.05 0.00 88 1004.2
20260505230206 12 119 0.0 3.2 0.00 0.05 0.00 88 1004.7